TimeCDT,TemperatureF,Dew PointF,Humidity,Sea Level PressureIn,VisibilityMPH,Wind Direction,Wind SpeedMPH,Gust SpeedMPH,PrecipitationIn,Events,Conditions,WindDirDegrees,DateUTC
12:52 AM,68.0,57.9,70,30.05,10.0,SSE,3.5,-,N/A,,Clear,150,2013-06-20 05:52:00
1:52 AM,66.9,57.0,70,30.05,10.0,SE,3.5,-,N/A,,Clear,130,2013-06-20 06:52:00
2:52 AM,64.9,57.0,75,30.06,10.0,SE,4.6,-,N/A,,Partly Cloudy,140,2013-06-20 07:52:00
3:52 AM,64.0,57.9,80,30.04,10.0,East,4.6,-,N/A,,Clear,100,2013-06-20 08:52:00
4:52 AM,62.1,57.0,84,30.06,10.0,ESE,4.6,-,N/A,,Scattered Clouds,120,2013-06-20 09:52:00
5:52 AM,64.9,57.9,78,30.06,10.0,SE,6.9,-,N/A,,Clear,140,2013-06-20 10:52:00
6:52 AM,66.9,57.9,73,30.06,10.0,SE,6.9,-,N/A,,Clear,140,2013-06-20 11:52:00
7:52 AM,71.1,59.0,66,30.07,10.0,SE,11.5,-,N/A,,Partly Cloudy,140,2013-06-20 12:52:00
8:52 AM,75.0,59.0,57,30.07,10.0,SSE,9.2,-,N/A,,Clear,160,2013-06-20 13:52:00
9:52 AM,79.0,60.1,52,30.07,10.0,South,15.0,20.7,N/A,,Clear,170,2013-06-20 14:52:00
10:52 AM,81.0,60.1,49,30.06,10.0,SSE,12.7,18.4,N/A,,Clear,150,2013-06-20 15:52:00
11:52 AM,82.9,62.1,49,30.05,10.0,SSE,10.4,19.6,N/A,,Clear,150,2013-06-20 16:52:00
12:52 PM,86.0,63.0,46,30.03,10.0,South,12.7,19.6,N/A,,Clear,180,2013-06-20 17:52:00
1:52 PM,87.1,63.0,44,30.02,10.0,SE,17.3,23.0,N/A,,Scattered Clouds,140,2013-06-20 18:52:00
2:52 PM,88.0,63.0,43,30.01,10.0,SSE,13.8,20.7,N/A,,Scattered Clouds,160,2013-06-20 19:52:00
3:52 PM,88.0,62.1,42,30.00,10.0,SSE,12.7,-,N/A,,Scattered Clouds,160,2013-06-20 20:52:00
4:52 PM,86.0,62.1,44,29.99,10.0,SSE,15.0,23.0,N/A,,Clear,160,2013-06-20 21:52:00
5:26 PM,87.8,62.6,43,29.99,10.0,South,15.0,23.0,N/A,,Partly Cloudy,170,2013-06-20 22:26:00
5:52 PM,87.1,63.0,44,29.97,10.0,South,16.1,21.9,N/A,,Scattered Clouds,180,2013-06-20 22:52:00
6:52 PM,84.9,63.0,48,29.96,10.0,South,12.7,-,N/A,,Partly Cloudy,170,2013-06-20 23:52:00
7:52 PM,84.0,63.0,49,29.96,10.0,South,9.2,-,N/A,,Clear,170,2013-06-21 00:52:00
8:52 PM,81.0,64.0,56,29.96,10.0,SSE,8.1,-,N/A,,Clear,160,2013-06-21 01:52:00
9:52 PM,80.1,64.0,58,29.97,10.0,SSE,9.2,-,N/A,,Clear,160,2013-06-21 02:52:00
10:52 PM,79.0,64.9,62,29.98,10.0,South,9.2,-,N/A,,Scattered Clouds,170,2013-06-21 03:52:00
11:52 PM,78.1,66.0,66,29.98,10.0,South,11.5,-,0.00,Rain,Light Rain,170,2013-06-21 04:52:00